GFSNIL_sfc_30mbdewp_000.txt.gz
Dewpoint
53 54 54 54 54 54 54 55 56 57 57 57 57 57 57 58 58 57 56 55 54 54
49 52 53 54 54 55 55 55 56 57 57 57 57 56 56 57 57 57 56 55 55 54
39 42 46 49 50 52 53 54 55 56 56 57 57 57 57 57 57 57 57 56 55 55
39 40 41 42 44 46 47 49 51 52 54 54 55 56 56 56 56 56 57 56 56 55
39 39 38 39 41 43 44 45 47 49 51 52 54 55 55 55 56 56 56 56 56 55
40 40 40 39 39 39 40 42 44 46 49 50 52 53 55 55 55 55 56 56 56 56
40 40 40 40 41 40 40 40 41 43 44 47 50 52 54 54 55 56 56 56 56 56
41 41 41 41 41 41 41 41 41 41 43 45 47 51 53 55 56 56 56 56 56 56
42 43 43 43 43 42 42 42 41 41 41 42 46 50 52 54 55 55 56 55 56 56
41 41 41 42 42 43 43 43 42 41 41 41 43 46 50 53 54 55 54 55 55 55
37 37 38 38 39 39 40 41 41 42 42 42 43 45 48 52 53 54 54 55 55 55
34 35 35 36 36 37 37 39 39 40 41 41 42 43 45 49 51 53 53 54 55 55
32 33 33 33 34 36 36 37 38 40 41 41 41 43 45 47 50 51 52 54 54 54
27 26 25 28 32 34 34 36 36 37 39 41 42 42 45 47 48 49 51 52 53 53

GFSNIL_sfc_30mbdewp_003.txt.gz
Dewpoint
46 50 52 52 53 53 53 54 55 56 57 58 59 59 59 59 60 60 59 59 57 56
38 39 42 46 49 51 52 54 55 56 56 57 58 57 57 58 58 59 59 59 58 56
39 39 39 40 41 42 44 47 49 51 53 55 56 57 57 57 57 57 58 58 57 56
40 40 40 39 39 39 40 41 42 44 46 49 51 53 55 56 56 57 57 57 57 57
40 40 40 40 40 41 40 40 40 41 42 44 47 50 52 53 54 55 56 56 56 56
41 42 42 41 42 42 41 41 40 41 41 42 44 46 49 51 53 54 55 56 56 56
41 42 42 43 44 44 44 43 43 43 43 42 42 44 46 48 51 53 54 55 55 55
42 42 41 42 43 43 43 44 45 45 44 44 44 43 44 47 49 51 52 54 55 55
39 39 39 39 39 40 40 41 42 43 44 44 44 43 45 46 47 48 50 52 53 54
35 35 36 37 37 37 38 38 39 40 40 41 43 44 45 45 46 47 48 50 52 52
34 34 34 34 34 34 35 36 37 38 39 41 42 43 44 44 46 46 47 49 51 52
26 29 29 28 27 28 31 33 35 36 38 39 40 42 44 45 45 46 47 48 49 50
25 25 24 25 26 26 27 30 33 34 35 36 37 39 42 43 43 43 45 47 47 48
21 21 20 20 23 23 22 25 30 30 30 30 30 34 40 41 42 42 43 44 44 47

GFSNIL_sfc_30mbdewp_006.txt.gz
Dewpoint
39 40 41 43 43 47 50 52 54 55 57 57 58 59 60 60 60 60 60 59 58 57
41 40 40 40 41 42 42 43 44 46 49 53 56 58 58 58 59 59 59 59 59 59
41 41 41 41 41 41 41 41 41 41 43 44 47 50 55 57 58 57 58 58 58 59
41 42 42 42 42 42 42 42 42 41 41 41 42 44 46 49 52 55 56 57 57 57
42 42 42 43 43 44 44 44 44 43 43 43 42 42 44 45 47 50 51 53 55 54
43 43 43 43 43 43 43 43 43 44 44 44 44 44 43 43 44 46 48 50 51 52
42 41 40 40 40 40 40 41 41 41 41 42 43 44 44 44 45 46 47 49 50 51
40 38 37 37 37 37 38 38 38 38 39 39 41 41 44 43 44 45 45 46 47 48
36 36 36 35 35 36 36 35 35 36 37 37 39 41 42 44 45 44 45 45 46 47
29 29 30 31 31 31 30 29 32 33 35 36 37 39 41 45 43 43 43 44 45 46
26 26 26 26 25 25 26 27 26 28 33 34 35 38 39 42 39 40 41 42 43 45
23 22 22 22 21 20 22 23 22 23 26 32 32 31 34 33 35 38 39 40 41 41
17 18 17 17 17 16 18 17 19 18 22 27 26 28 31 32 34 33 36 35 36 40
12 12 12 13 14 14 13 16 16 16 17 19 22 21 27 29 32 32 31 29 31 35

GFSNIL_sfc_30mbdewp_009.txt.gz
Dewpoint
41 41 41 41 41 42 42 42 43 43 44 45 48 55 59 60 60 60 60 60 60 59
42 42 42 42 42 43 43 43 43 43 42 43 43 44 47 51 55 57 58 57 58 58
42 43 43 43 43 43 44 44 44 44 44 44 43 43 44 44 46 47 50 54 56 55
43 43 43 42 42 43 43 43 43 43 43 44 44 44 44 44 44 44 46 48 50 51
42 42 41 40 40 40 40 41 41 41 41 40 41 42 43 44 44 44 44 46 48 49
40 39 38 38 37 37 37 37 38 38 38 38 39 39 41 41 43 42 44 45 45 46
38 36 35 35 35 35 35 35 35 33 32 35 37 37 39 39 39 41 44 45 45 45
32 30 29 31 31 32 31 32 30 28 31 30 33 35 37 39 42 43 43 43 42 43
28 27 27 27 27 27 27 27 25 27 27 26 33 32 38 42 37 35 34 35 39 41
23 23 23 23 23 23 23 20 19 26 21 25 24 29 36 39 29 29 30 36 36 38
18 18 18 18 18 18 17 16 19 16 18 19 18 28 35 32 26 27 28 34 34 36
13 13 13 14 13 14 13 15 12 13 15 15 17 26 27 25 26 26 27 31 33 28
11 11 11 11 10 10 12 12 12 11 13 17 17 23 22 21 27 26 28 31 30 29
10 10 10 10 10 11 11 11 11 11 11 14 16 15 16 21 24 25 29 30 30 29

GFSNIL_sfc_30mbdewp_012.txt.gz
Dewpoint
43 43 43 43 43 43 43 43 43 44 44 44 44 44 44 46 48 51 54 56 57 56
43 42 42 42 42 42 42 42 42 43 43 43 43 44 44 44 45 46 47 48 50 53
42 41 41 40 39 39 40 41 40 40 41 41 41 41 42 42 43 44 44 45 46 48
41 39 39 39 38 38 38 38 38 38 39 38 37 38 39 39 40 42 42 41 44 45
39 37 36 34 34 34 33 33 34 35 33 31 33 36 37 37 40 37 38 40 43 44
34 31 30 30 30 30 30 29 30 28 27 27 32 27 32 37 34 37 40 42 44 43
29 28 28 27 26 26 27 25 25 22 22 28 23 24 32 29 34 40 39 41 35 34
26 25 25 24 23 23 22 21 21 18 18 26 16 22 25 26 32 38 29 29 27 32
19 18 19 18 18 18 17 18 17 16 18 16 14 24 24 28 33 26 25 25 24 29
13 13 13 14 15 14 14 15 13 15 13 12 17 17 24 32 26 19 18 24 24 25
11 11 11 12 11 12 11 11 12 12 12 12 11 17 22 24 18 16 19 25 25 27
11 10 10 10 11 10 10 11 12 11 11 12 13 18 18 19 18 21 23 24 26 30
11 11 10 11 11 11 12 12 12 12 12 12 13 16 18 20 21 22 23 25 30 28
11 11 11 11 12 12 13 13 14 13 13 13 16 18 21 23 24 24 24 25 26 25

GFSNIL_sfc_30mbdewp_015.txt.gz
Dewpoint
41 41 40 40 40 39 40 41 40 40 41 42 42 41 41 43 44 45 45 46 47 48
40 40 39 38 39 38 38 37 38 39 39 39 38 37 38 39 40 41 43 45 46 44
39 38 37 36 35 35 36 35 35 36 35 34 32 33 36 36 36 39 41 38 40 42
35 34 33 32 32 32 32 31 30 30 28 25 27 32 26 27 33 37 33 36 39 41
31 29 27 26 27 27 26 26 25 24 20 19 23 28 19 22 32 25 32 36 39 42
25 24 24 24 24 23 23 21 20 20 17 17 20 23 14 25 22 24 27 37 37 28
21 21 20 20 20 19 20 16 17 16 15 16 18 13 15 23 22 25 30 25 26 26
17 17 16 16 16 16 15 14 14 14 13 14 12 10 18 20 23 29 22 18 15 18
13 13 13 13 13 13 12 12 12 12 13 12 12 14 18 21 24 23 17 16 19 25
12 12 12 12 12 11 11 11 11 11 12 12 12 15 19 21 21 18 19 20 22 23
11 11 11 11 11 11 11 11 11 12 12 13 13 16 19 20 20 21 21 22 23 24
11 11 11 11 11 12 12 12 12 13 13 13 13 17 19 21 22 23 23 24 25 26
12 11 11 11 12 12 13 13 13 14 14 15 15 17 21 23 23 23 24 27 29 26
12 12 12 12 13 13 14 14 14 14 15 16 18 21 22 22 23 23 27 29 24 24

GFSNIL_sfc_30mbdewp_018.txt.gz
Dewpoint
39 38 37 36 36 35 35 36 35 36 37 36 35 32 34 37 38 38 40 42 43 42
36 34 33 33 33 33 33 31 30 33 32 30 26 28 32 29 26 31 37 36 37 38
32 31 30 28 26 27 28 29 28 25 25 19 21 21 30 21 18 29 27 24 34 36
27 25 24 23 24 24 24 24 22 22 19 17 18 18 26 15 16 24 21 26 28 37
22 21 19 19 21 21 21 20 18 19 16 16 16 18 15 14 21 21 23 25 29 26
17 17 16 16 18 18 17 16 15 16 15 13 15 13 13 14 18 20 23 28 23 19
14 14 13 14 15 15 15 14 13 13 13 13 14 13 12 17 20 22 24 23 19 17
13 13 13 13 13 14 14 13 13 12 12 13 13 10 18 20 21 22 21 19 20 20
11 12 12 12 12 12 12 12 12 12 12 12 12 15 19 21 21 21 20 21 22 22
11 12 12 12 12 11 12 12 12 12 12 13 13 16 20 22 21 22 22 22 22 23
11 12 12 11 11 12 12 12 12 12 13 14 14 18 20 22 22 22 23 23 24 24
11 12 12 11 11 12 13 13 13 13 14 14 15 18 21 22 22 22 23 24 24 28
12 12 11 12 12 13 14 13 14 14 14 15 16 19 22 21 21 22 23 24 29 23
12 12 12 12 13 14 14 14 15 14 14 16 18 20 21 21 21 21 26 27 21 21

GFSNIL_sfc_30mbdewp_021.txt.gz
Dewpoint
34 32 30 27 25 24 24 25 24 23 21 18 16 18 20 28 24 21 30 37 27 28
28 25 23 22 22 22 22 17 18 19 18 16 15 15 18 22 14 18 28 22 23 27
22 20 19 18 17 18 17 17 16 15 15 13 14 14 16 15 14 16 20 19 23 28
18 16 15 15 15 16 15 15 13 13 13 12 11 12 12 11 11 16 18 21 23 28
16 14 12 12 14 14 13 13 13 12 11 10 11 12 11 11 14 17 19 20 24 23
12 12 11 11 12 12 12 12 11 11 10 10 11 11 11 13 17 19 20 20 21 19
11 11 11 12 12 12 12 12 11 11 11 11 11 12 12 18 20 20 21 21 20 20
12 13 12 12 12 12 12 12 12 11 11 11 12 9 18 20 21 21 21 21 21 21
12 13 13 12 12 12 12 11 12 11 11 11 11 16 20 22 22 22 22 21 22 22
12 12 12 12 12 12 12 12 11 11 11 11 13 17 20 22 22 22 21 21 22 23
12 12 12 12 11 12 12 12 11 11 12 12 13 18 21 23 21 21 20 21 22 23
12 12 12 11 11 12 12 12 11 12 12 13 14 18 21 22 21 20 20 21 22 26
12 12 11 12 12 13 14 13 13 13 13 14 15 18 21 21 20 20 21 23 25 21
12 12 12 12 14 14 14 14 14 13 13 15 17 19 20 20 20 21 25 26 21 19

GFSNIL_sfc_30mbdewp_024.txt.gz
Dewpoint
31 27 24 21 19 16 14 12 14 14 13 11 11 11 12 16 20 14 15 25 21 19
23 21 19 15 13 13 12 10 10 11 11 10 10 10 12 13 11 11 13 15 17 19
17 14 11 10 10 10 9 9 9 8 8 9 8 8 9 9 9 10 13 14 16 18
13 9 8 8 8 8 7 8 8 7 7 6 6 7 7 7 8 11 14 16 16 17
11 8 7 7 7 7 7 7 8 7 7 6 7 8 7 8 10 13 14 16 16 17
9 8 7 7 7 8 8 8 7 7 7 7 8 8 9 8 13 15 16 16 17 18
9 9 8 8 9 8 8 8 8 8 8 8 8 9 7 14 16 17 17 18 19 18
10 10 9 10 9 9 10 9 9 9 8 7 8 6 15 18 19 19 18 19 17 17
9 10 11 10 9 9 9 9 10 8 7 7 7 11 18 22 21 19 18 17 17 17
9 9 9 9 9 9 10 10 9 8 7 7 9 12 19 22 21 19 17 17 16 16
9 8 8 7 7 8 9 9 8 8 8 9 8 14 19 22 20 18 17 16 17 17
8 8 7 7 8 9 9 9 8 9 9 9 9 14 20 21 19 17 16 16 17 22
8 8 7 8 9 10 10 9 9 8 8 9 12 16 20 21 19 18 17 19 22 19
8 7 8 8 10 10 9 9 8 7 8 12 15 16 19 20 19 19 22 24 20 18

GFSNIL_sfc_30mbdewp_027.txt.gz
Dewpoint
30 28 24 21 19 16 15 12 12 12 11 11 11 11 12 17 20 18 17 18 18 19
23 21 19 16 14 13 11 8 8 9 9 9 9 9 11 13 12 12 13 15 17 17
18 15 13 12 11 10 8 7 8 7 7 7 7 7 8 10 11 10 12 14 16 17
16 12 11 9 7 7 6 6 7 6 6 6 7 7 8 8 9 9 12 14 16 17
14 11 9 7 7 6 6 6 7 7 7 7 7 8 8 8 8 9 13 15 16 17
12 10 8 7 7 7 7 7 8 9 8 8 8 8 8 8 8 13 15 16 17 18
12 10 9 8 9 8 8 9 9 10 10 9 8 9 9 9 14 17 17 18 19 19
11 10 10 10 10 9 10 10 11 11 10 9 9 7 12 15 18 20 19 19 18 17
9 9 10 10 9 9 10 11 11 11 10 9 8 10 14 17 20 20 20 18 17 17
8 8 8 8 8 9 10 10 10 10 9 8 10 11 14 18 21 21 19 17 16 16
7 7 7 7 8 9 10 10 9 9 9 10 9 11 15 19 21 19 18 17 17 17
6 6 7 7 8 10 10 10 10 10 10 8 8 11 16 19 20 20 18 18 18 20
7 7 6 8 9 10 10 10 10 9 8 7 9 13 17 19 20 20 19 20 24 21
7 7 8 9 10 10 9 9 8 7 7 9 12 14 17 18 19 19 20 25 22 20

GFSNIL_sfc_30mbdewp_030.txt.gz
Dewpoint
27 23 20 17 17 15 14 13 13 13 12 12 12 12 12 15 18 16 15 14 16 18
20 18 16 14 14 13 12 9 10 10 10 10 10 10 11 13 12 13 12 13 15 16
15 13 13 12 9 9 8 8 9 9 8 9 9 9 9 11 12 10 12 12 14 16
13 12 10 9 8 7 8 8 8 8 9 9 9 10 10 10 9 9 10 13 15 17
14 11 9 8 8 8 8 8 9 10 10 10 10 11 10 9 10 10 13 15 17 18
12 11 9 9 9 9 9 9 11 11 11 11 12 11 10 10 11 15 17 18 19 19
12 11 10 11 11 10 10 11 12 12 12 13 12 11 10 12 15 17 19 21 21 20
12 11 11 12 12 11 12 12 13 13 13 13 12 9 12 15 16 18 20 21 21 20
10 10 11 11 10 10 12 12 12 12 12 11 11 12 14 16 17 19 20 21 20 19
9 9 9 9 9 10 11 11 11 11 11 10 11 12 14 15 18 20 20 20 19 18
8 7 8 8 9 10 11 11 11 11 11 10 10 11 13 16 19 19 20 20 20 19
7 7 8 8 9 10 11 11 11 10 10 9 8 12 14 17 18 19 19 20 21 22
7 7 7 8 9 11 11 11 11 10 9 9 9 13 16 18 18 18 19 20 25 24
8 8 9 10 10 11 10 10 10 8 7 9 12 15 17 19 19 19 21 25 22 22

GFSNIL_sfc_30mbdewp_033.txt.gz
Dewpoint
21 19 18 16 15 14 12 11 11 11 10 10 11 11 12 14 15 14 12 12 13 17
17 15 14 13 12 11 11 9 10 9 9 10 10 10 11 12 11 12 12 12 15 15
13 13 11 10 8 8 8 8 9 9 9 10 10 11 11 11 12 11 12 13 15 15
11 10 9 9 8 8 8 8 9 10 10 11 11 11 11 10 10 11 13 16 16 18
11 10 8 8 9 9 9 9 10 11 12 12 12 13 12 10 10 13 15 17 19 19
11 10 9 10 10 10 10 10 12 12 13 13 14 14 12 11 11 15 17 19 20 20
11 11 10 12 11 11 11 12 12 13 14 14 14 13 12 13 16 17 18 20 21 21
11 11 12 12 11 11 12 13 13 13 13 13 12 10 15 16 17 17 19 20 21 21
11 11 11 10 10 10 11 12 12 12 12 11 11 14 16 16 16 17 18 20 20 21
9 9 9 9 9 9 10 11 11 11 11 11 11 13 14 16 17 18 19 19 20 20
8 7 8 8 8 9 10 11 11 11 11 11 10 13 14 17 18 18 19 20 20 20
7 7 8 8 9 10 10 11 11 11 11 9 9 14 16 19 19 19 19 19 20 24
8 7 8 9 10 10 11 11 11 10 9 11 10 17 19 21 20 19 19 24 25 22
8 8 9 10 10 11 11 10 10 9 8 11 15 18 20 20 19 20 25 24 21 19

GFSNIL_sfc_30mbdewp_036.txt.gz
Dewpoint
21 20 18 16 14 13 12 11 11 10 10 10 11 11 12 14 14 13 12 12 14 16
17 16 14 13 12 11 10 9 9 9 10 11 11 11 12 13 11 12 13 13 15 16
13 12 10 9 8 8 8 9 9 10 11 11 12 12 12 12 12 11 12 14 16 17
10 10 9 8 8 8 9 9 10 11 11 12 12 13 13 12 11 11 13 16 17 19
10 9 8 9 10 10 9 10 11 12 13 13 13 14 14 12 12 11 14 16 19 20
10 9 9 10 11 11 11 11 12 13 13 14 14 14 13 13 13 15 16 17 19 20
11 10 11 12 11 11 12 12 13 14 14 14 13 13 12 16 17 17 17 18 20 20
12 12 12 11 11 11 12 13 13 13 12 12 12 10 17 18 18 17 17 18 20 20
11 11 11 10 10 10 11 12 12 11 12 11 11 15 17 18 17 18 18 19 19 20
10 9 9 9 9 9 10 11 11 11 11 11 12 15 17 19 20 19 19 19 19 20
8 8 8 8 8 9 10 11 11 10 11 11 10 16 19 21 21 20 20 20 20 20
7 7 8 8 9 10 10 11 11 11 11 9 11 16 19 21 20 20 20 20 21 25
8 7 8 9 10 11 11 11 11 10 9 11 11 15 19 20 20 20 20 24 26 23
8 9 10 11 11 11 11 11 9 9 10 11 13 17 20 20 20 20 26 22 20 20

GFSNIL_sfc_30mbdewp_039.txt.gz
Dewpoint
25 23 20 18 15 13 11 11 10 10 10 11 12 12 12 14 14 13 13 12 14 15
19 17 15 12 12 11 11 10 10 10 11 12 12 12 13 14 12 12 12 13 15 16
14 12 11 9 8 8 9 10 10 11 12 12 13 13 13 13 13 12 12 14 16 17
10 9 8 8 8 9 9 10 11 12 12 13 13 14 13 13 12 12 13 14 16 17
10 9 9 9 10 10 10 11 12 13 13 14 14 14 13 12 12 14 15 16 17 18
9 9 10 10 11 11 11 12 13 13 13 13 14 13 12 12 15 16 17 17 18 18
10 10 11 11 11 11 12 12 13 13 12 13 13 12 12 16 18 18 18 18 19 20
12 12 12 11 11 11 12 12 13 12 12 12 12 10 18 20 19 19 18 19 19 20
12 11 10 10 10 10 11 11 11 11 11 11 11 16 19 21 22 20 20 19 19 20
11 10 9 9 9 10 10 11 11 11 11 10 11 16 20 21 22 21 20 20 20 20
9 8 8 9 9 10 10 11 11 10 11 10 10 18 19 21 21 21 20 20 20 20
8 7 8 9 10 10 11 11 11 11 10 10 12 18 19 21 20 20 20 21 22 25
8 8 9 10 10 11 11 11 11 10 10 13 13 17 20 21 20 20 20 25 24 22
9 10 11 11 11 11 11 11 10 11 12 13 15 18 20 20 20 20 21 19 21 21

GFSNIL_sfc_30mbdewp_042.txt.gz
Dewpoint
25 23 20 17 14 12 11 11 11 11 11 12 12 13 14 15 13 13 12 11 13 15
21 19 15 13 12 12 11 10 11 11 12 12 13 13 13 14 13 13 13 13 14 16
15 12 11 10 9 9 10 11 11 12 12 13 13 14 13 13 13 12 13 14 15 16
10 9 9 8 9 9 11 11 12 13 13 13 13 13 12 12 12 13 15 16 17 17
9 9 9 9 10 10 11 12 13 13 13 13 13 13 12 11 14 15 16 17 17 18
9 9 10 10 11 11 12 13 13 13 12 12 13 12 11 13 16 18 18 18 18 19
10 10 10 11 11 12 12 12 12 12 12 12 11 11 12 18 20 20 19 19 20 19
12 12 11 11 12 12 12 12 12 11 11 11 11 10 19 21 22 21 20 20 20 20
12 11 11 10 11 11 11 11 11 11 11 10 11 16 20 22 22 22 20 20 20 21
11 10 10 10 10 10 10 11 11 10 11 10 11 17 21 21 22 21 20 20 20 20
10 9 9 10 10 10 10 10 10 10 11 11 11 19 20 21 22 21 20 20 20 21
9 9 10 10 10 10 10 10 10 11 10 11 14 19 20 22 21 20 20 21 21 24
9 10 10 10 10 11 11 11 11 11 12 15 14 18 21 21 21 20 20 21 20 22
10 10 11 11 11 11 10 11 11 13 14 15 16 19 20 20 21 20 20 19 21 21

GFSNIL_sfc_30mbdewp_045.txt.gz
Dewpoint
25 22 19 17 15 14 12 13 14 14 14 14 15 15 16 18 17 17 16 14 14 16
22 20 17 15 14 13 13 12 14 14 14 15 15 15 16 16 14 14 15 15 16 16
17 15 14 13 12 12 12 13 14 14 14 14 14 14 14 13 14 14 16 17 17 17
13 11 10 10 11 12 12 13 13 14 14 13 13 13 11 12 14 16 17 18 18 18
11 10 10 10 11 12 12 13 14 13 12 13 13 12 11 13 16 17 18 19 19 19
10 10 10 11 12 13 13 13 13 12 12 12 12 11 11 15 18 20 20 20 20 19
11 11 11 12 13 13 13 13 12 12 12 12 11 11 14 19 21 22 22 21 21 20
12 12 13 13 13 13 13 13 13 12 11 11 11 9 19 22 22 22 22 21 20 20
13 12 13 13 12 13 12 12 12 11 11 10 10 17 21 22 22 22 21 20 19 20
12 12 12 12 12 11 11 11 11 10 11 10 12 19 21 22 22 21 21 20 20 20
11 11 12 11 11 11 11 10 10 10 11 11 12 21 21 22 22 21 20 21 21 21
10 11 11 11 11 11 10 10 10 11 12 13 16 20 21 22 21 20 20 21 21 21
11 11 11 11 11 11 11 11 11 11 14 16 15 19 21 21 20 20 20 21 20 20
11 11 11 11 11 10 11 12 12 14 15 16 17 18 20 21 21 21 21 19 20 20

GFSNIL_sfc_30mbdewp_048.txt.gz
Dewpoint
35 31 28 24 21 17 16 16 16 15 15 16 16 16 17 18 17 18 16 15 14 14
28 24 19 17 16 15 15 15 15 15 15 15 15 14 17 14 12 13 14 15 17 17
23 19 17 16 15 15 13 13 15 14 15 14 13 12 12 11 12 12 15 15 17 17
19 16 15 15 15 13 13 13 13 13 13 12 11 10 9 10 12 15 16 18 18 18
15 15 14 14 13 12 12 12 12 12 10 10 10 9 7 10 14 16 17 18 18 18
14 14 13 12 12 12 12 13 12 11 10 9 10 9 8 13 16 18 19 19 19 18
14 13 12 12 12 12 13 12 11 11 11 10 9 9 13 17 19 19 19 20 20 19
14 13 12 13 13 13 12 12 12 11 10 10 11 8 18 19 20 19 19 19 18 17
13 13 13 13 13 13 13 12 12 11 10 10 8 18 22 23 20 19 18 17 16 17
13 13 13 13 13 13 12 12 11 10 10 9 11 19 22 22 21 19 18 17 17 17
12 12 13 13 12 12 12 11 10 10 10 11 11 20 21 22 20 18 18 18 18 19
11 12 12 12 11 11 11 11 10 11 11 11 12 17 21 22 18 17 18 18 18 19
11 12 12 12 12 12 11 11 10 10 12 13 12 15 20 21 19 18 17 18 18 18
12 12 12 12 12 12 12 11 10 11 11 12 13 15 19 21 20 19 19 18 16 17

GFSNIL_sfc_30mbdewp_051.txt.gz
Dewpoint
45 42 36 33 28 24 24 22 21 19 18 19 18 19 21 22 20 21 19 18 17 17
41 36 31 26 22 21 20 19 19 18 16 16 16 16 19 18 14 14 15 16 17 18
35 27 22 19 18 18 17 17 18 16 16 15 14 13 13 12 13 12 14 16 17 18
25 21 20 18 18 16 16 16 15 15 14 13 12 10 10 10 12 14 15 17 18 18
20 18 17 17 17 16 15 14 13 12 11 10 10 8 8 9 12 15 16 17 18 18
18 17 16 15 16 14 13 13 12 11 10 9 10 9 8 11 13 16 17 18 18 19
17 16 15 14 14 14 13 12 12 11 10 10 10 10 12 16 18 19 19 19 19 19
16 16 14 15 14 14 13 12 12 11 11 11 13 9 17 20 20 18 18 18 18 17
16 15 16 15 14 14 13 13 12 12 11 11 9 19 23 24 21 19 18 17 17 17
16 16 15 15 15 14 13 13 12 12 11 10 12 19 22 23 21 19 18 17 17 18
15 15 15 15 15 14 13 13 12 12 11 12 12 18 21 23 20 17 17 17 18 18
14 14 14 13 12 12 12 12 11 12 12 11 10 16 20 22 19 17 17 17 17 19
13 13 13 13 13 13 13 12 12 11 12 12 11 13 18 21 19 17 18 19 19 18
13 13 13 13 13 13 13 13 12 11 11 11 12 13 16 19 21 20 20 21 18 19

GFSNIL_sfc_30mbdewp_054.txt.gz
Dewpoint
43 41 37 35 32 30 28 28 28 25 25 23 22 23 25 25 23 23 23 19 18 18
42 39 36 33 30 28 25 24 22 21 20 20 19 20 22 21 17 16 17 17 18 19
38 35 31 27 25 24 21 20 20 19 18 17 16 16 16 15 13 13 16 18 17 19
29 27 25 22 21 19 19 18 18 17 16 15 13 12 12 11 13 14 16 17 18 19
23 22 20 18 17 18 17 16 16 15 13 12 10 9 8 10 13 15 16 17 19 19
23 21 19 17 17 17 15 15 13 12 11 11 11 10 9 13 14 16 18 19 19 19
21 18 17 15 15 15 14 13 13 12 12 11 11 11 14 17 19 20 20 20 20 19
17 16 15 15 15 15 14 13 13 12 12 12 13 16 20 23 22 21 20 19 19 18
17 16 16 15 15 15 14 13 13 13 12 14 10 20 23 24 23 22 20 19 18 18
18 17 16 16 15 14 14 14 12 12 12 12 17 20 22 23 23 22 20 18 18 18
17 17 17 16 15 14 14 13 12 12 12 12 16 19 20 23 22 20 18 18 18 18
18 16 15 14 13 13 12 12 12 12 12 12 14 18 18 21 21 19 18 19 19 21
15 15 14 13 13 15 14 13 12 12 12 16 11 14 17 20 20 20 20 21 22 22
14 14 14 14 14 14 14 13 12 12 11 11 12 13 15 17 20 20 21 22 20 20

GFSNIL_sfc_30mbdewp_057.txt.gz
Dewpoint
48 46 43 41 39 37 35 33 29 28 29 30 30 29 27 25 24 23 22 18 18 19
45 43 41 38 37 34 32 30 28 28 27 27 25 25 24 21 17 19 18 18 19 19
42 40 37 35 32 29 28 25 25 25 25 23 21 21 20 17 15 15 17 19 17 18
38 36 33 29 27 25 23 23 22 22 20 19 16 16 15 16 14 14 16 17 18 19
30 30 28 26 24 21 21 20 19 17 16 15 12 11 11 11 12 15 16 17 18 19
25 24 22 20 20 20 19 19 17 15 13 12 11 10 12 13 15 17 18 19 19 19
23 20 19 19 19 21 21 19 15 15 13 13 12 13 18 20 21 21 20 20 20 20
22 20 20 20 21 20 17 15 14 13 12 13 15 17 20 23 23 22 20 20 20 19
21 22 21 20 18 18 15 14 13 13 13 11 18 24 24 25 23 22 21 20 20 19
22 24 25 23 19 19 14 14 14 14 13 15 21 22 23 24 23 21 20 18 18 18
29 28 25 19 16 17 17 15 12 12 13 15 21 21 22 23 21 20 19 19 19 20
29 25 23 24 25 21 14 13 14 14 13 12 20 19 19 21 20 20 20 21 21 23
26 23 20 14 14 14 14 14 14 13 12 15 11 16 16 18 20 19 20 21 22 23
24 20 15 16 16 17 14 13 12 12 12 11 13 13 16 16 18 19 21 22 21 21

GFSNIL_sfc_30mbdewp_060.txt.gz
Dewpoint
54 53 51 48 46 44 42 40 39 37 35 32 31 30 28 27 26 24 20 17 18 19
52 49 47 44 44 42 41 39 36 35 33 30 29 29 27 25 22 21 19 19 19 19
47 46 44 44 42 41 39 36 35 32 29 28 27 25 23 18 18 17 18 19 18 18
43 43 42 41 39 38 35 32 29 26 26 24 24 23 19 17 15 15 16 18 18 19
41 40 39 37 35 32 29 28 24 22 20 19 18 15 15 13 14 15 16 17 18 19
36 34 33 30 27 27 25 22 19 19 18 16 14 12 13 14 16 17 19 20 20 20
30 29 27 23 23 22 21 21 19 16 14 14 15 17 19 21 21 21 20 20 20 20
26 23 22 23 23 21 19 17 16 14 14 17 18 20 23 22 22 20 19 20 20 20
24 25 26 24 22 21 22 21 22 23 23 21 25 27 27 24 21 21 20 19 19 19
26 25 25 26 26 26 24 24 24 23 22 22 25 26 25 26 20 19 19 18 19 19
31 31 30 29 27 25 26 24 24 19 17 21 23 24 23 24 20 19 20 20 20 21
32 32 31 31 30 28 26 21 15 15 15 20 22 21 21 22 20 19 19 20 21 23
32 31 31 28 28 26 23 20 16 14 12 15 13 19 17 20 20 18 19 21 22 23
31 29 23 22 21 19 16 14 13 12 11 12 14 14 17 19 20 21 22 22 21 21

GFSNIL_sfc_30mbdewp_063.txt.gz
Dewpoint
58 56 54 52 52 50 48 46 43 44 43 40 37 34 31 28 26 24 21 18 19 19
55 54 52 50 49 48 46 43 43 41 39 37 34 30 28 26 25 21 21 19 20 20
52 51 48 47 46 44 44 42 41 40 37 34 31 28 26 22 21 19 20 21 19 19
48 46 45 45 44 43 41 40 39 36 33 29 26 24 21 20 18 18 19 19 18 19
44 44 43 42 42 41 39 37 35 30 27 26 25 21 19 16 17 17 17 18 19 19
42 42 41 40 40 36 33 28 26 25 23 20 18 15 15 16 18 20 22 23 20 20
36 36 34 32 32 29 25 24 23 20 17 18 19 21 24 26 27 26 22 21 20 20
32 27 27 26 24 23 19 17 16 16 20 23 24 25 27 27 25 20 19 20 20 20
26 26 24 22 21 22 22 23 25 27 29 32 34 34 32 27 21 20 18 17 18 19
28 28 28 28 28 28 28 28 29 29 30 32 33 33 31 27 21 18 18 18 19 19
31 31 31 31 30 30 30 31 31 31 32 32 32 31 28 23 19 19 19 20 21 21
33 32 31 31 31 32 32 31 30 29 29 27 25 23 25 21 19 18 18 20 21 23
33 32 31 31 31 31 31 29 28 23 20 21 19 21 18 23 20 19 20 22 22 23
32 31 32 31 31 29 25 17 13 12 13 14 15 17 19 24 21 22 23 22 22 22

GFSNIL_sfc_30mbdewp_066.txt.gz
Dewpoint
59 58 57 56 56 54 53 52 49 48 47 46 44 42 40 38 34 30 27 22 21 20
51 56 56 54 53 52 51 48 48 48 46 44 41 38 36 34 28 25 23 22 21 21
49 53 53 51 50 49 47 46 45 44 43 41 37 32 29 27 23 22 22 22 21 22
48 48 48 48 46 45 44 44 43 42 40 37 32 27 24 23 21 20 20 20 20 20
45 45 45 45 44 42 42 41 39 37 33 28 24 22 21 20 21 21 20 21 21 21
43 43 43 42 41 40 39 36 32 29 26 24 23 24 25 26 25 25 26 27 28 28
40 39 39 38 37 35 32 30 28 23 21 20 21 23 26 28 29 29 28 28 27 26
33 32 30 28 26 25 24 22 22 22 25 26 28 29 30 30 29 27 26 26 26 25
25 23 22 22 21 22 23 26 29 30 32 33 35 34 32 29 28 28 26 24 22 20
29 29 29 28 27 28 29 30 32 33 34 34 36 35 33 32 29 27 23 18 19 20
31 32 32 32 31 30 31 31 32 33 33 32 35 35 32 30 27 20 19 20 21 21
32 32 31 31 32 32 32 31 31 31 32 32 32 34 31 24 19 19 19 21 22 23
33 32 32 32 31 31 31 30 31 30 31 31 30 29 24 23 19 19 21 23 22 24
32 32 32 31 31 31 30 29 26 24 20 17 17 21 24 25 23 23 23 22 22 23

GFSNIL_sfc_30mbdewp_069.txt.gz
Dewpoint
51 58 59 59 58 57 56 55 56 55 52 51 50 49 48 46 45 42 39 33 29 24
44 48 56 57 57 57 55 53 52 52 51 50 49 47 45 43 39 36 31 28 25 24
44 47 51 54 54 53 50 50 50 50 49 47 45 44 43 37 31 27 25 24 22 24
44 47 49 49 49 48 47 47 47 46 45 43 40 36 32 27 24 22 21 23 22 22
45 46 47 46 46 45 45 44 43 41 39 34 29 27 23 22 21 21 23 25 25 27
44 44 44 44 43 42 41 39 38 33 28 25 24 24 25 26 27 29 29 30 29 29
41 42 41 40 38 34 32 30 28 26 25 24 25 27 28 30 30 30 30 30 30 30
33 31 30 32 29 28 27 26 27 28 28 28 28 28 29 30 29 29 30 31 31 31
26 25 23 24 25 26 27 30 32 33 33 33 34 34 33 31 31 31 30 29 28 29
30 30 29 29 30 31 32 34 34 35 36 36 36 36 35 33 31 29 28 26 23 24
32 32 32 31 32 33 33 33 33 34 35 35 36 34 31 29 28 27 22 24 26 24
32 32 32 32 32 32 32 32 32 32 32 32 32 31 30 26 22 20 22 25 24 24
33 32 32 32 31 32 32 31 32 31 33 33 32 31 32 26 20 24 23 23 22 24
33 32 32 32 32 31 30 30 29 29 29 27 22 29 28 26 24 24 23 22 22 23

GFSNIL_sfc_30mbdewp_072.txt.gz
Dewpoint
43 50 56 58 58 58 59 59 59 59 59 58 58 56 55 54 53 51 50 47 40 31
42 44 49 54 58 59 59 59 58 58 57 56 55 54 53 52 51 48 46 40 32 29
43 44 45 48 52 55 56 55 54 54 53 52 51 51 49 48 45 41 36 32 28 27
44 45 47 49 50 51 51 51 51 51 50 49 48 46 42 37 33 31 31 32 31 30
46 46 47 47 48 48 48 48 47 47 46 43 40 35 30 27 26 27 27 28 28 29
44 44 45 45 45 45 45 44 42 39 34 31 27 26 25 25 27 28 29 30 31 32
40 41 40 39 37 36 33 31 30 29 27 28 28 29 29 31 31 31 32 32 32 32
30 32 31 31 29 28 28 27 28 29 30 31 31 32 32 32 31 31 32 32 32 32
28 28 28 29 30 30 30 31 33 33 34 34 34 34 34 33 32 32 31 30 30 30
30 30 31 31 32 33 34 35 35 35 35 35 36 37 36 34 32 31 29 27 26 25
32 32 33 34 34 34 34 34 34 34 35 35 36 35 32 29 28 26 25 26 27 26
32 33 33 33 33 34 33 32 32 32 32 32 32 31 28 23 21 23 25 26 26 24
33 33 32 32 32 32 33 32 32 32 33 34 30 31 28 25 27 23 21 21 21 24
33 33 33 33 33 32 32 32 31 30 28 27 30 29 28 25 22 22 21 20 20 21

GFSNIL_sfc_30mbdewp_075.txt.gz
Dewpoint
40 41 46 54 56 56 58 57 59 59 60 60 60 60 59 58 58 56 55 54 52 46
42 42 43 47 54 57 58 59 59 59 58 59 59 59 58 57 55 54 53 47 39 35
43 43 44 45 46 50 56 57 56 56 57 56 55 54 54 52 50 47 42 39 37 36
44 45 46 46 48 50 51 51 52 53 52 51 51 50 49 47 42 39 37 36 34 33
45 46 46 47 47 48 49 49 49 49 48 47 45 40 38 37 36 35 33 33 33 33
43 43 44 44 45 45 45 44 43 41 39 35 33 30 29 30 31 32 32 32 33 33
36 36 35 33 33 32 32 31 30 30 29 29 29 30 30 32 33 33 33 33 34 34
30 31 31 30 30 30 30 31 31 31 32 33 33 33 33 33 33 33 33 33 33 33
30 31 31 32 33 33 34 34 34 34 34 35 36 35 35 33 33 33 32 30 31 32
32 33 34 34 34 34 35 35 35 35 35 35 36 36 35 34 31 30 30 30 30 28
33 34 35 35 35 35 35 35 34 34 34 34 35 35 33 30 29 29 28 27 26 25
34 34 34 34 33 34 33 32 32 32 32 31 30 29 27 24 24 25 27 28 28 24
34 34 33 33 32 33 33 33 33 33 32 30 29 28 27 27 27 26 22 21 21 24
34 34 33 33 34 33 32 32 31 29 28 29 28 28 26 24 22 21 21 20 19 20

GFSNIL_sfc_30mbdewp_078.txt.gz
Dewpoint
43 42 42 44 50 56 57 58 59 60 60 60 60 61 61 60 59 59 57 56 55 49
43 43 44 44 45 49 57 59 59 59 58 58 59 60 60 59 58 58 56 53 47 41
44 44 44 45 45 49 54 54 55 56 57 57 56 56 56 53 51 49 44 42 41 39
45 46 47 47 48 49 49 51 52 53 53 52 51 51 50 47 45 44 41 40 38 36
44 44 45 46 46 48 48 49 49 48 46 44 41 40 41 40 39 38 37 36 35 35
37 37 36 35 34 34 34 34 32 32 31 29 29 31 32 33 33 34 34 35 35 35
33 32 31 31 31 31 31 31 31 31 31 31 32 32 33 33 34 34 34 35 34 34
31 31 32 32 32 32 32 33 33 33 33 33 33 33 33 33 33 33 33 33 34 34
32 33 34 34 34 34 35 35 35 36 36 35 35 35 34 33 33 32 31 31 32 32
34 35 35 35 35 35 35 35 35 35 35 35 35 36 36 33 31 31 31 31 31 31
35 35 35 35 35 35 35 34 34 34 35 35 36 35 34 30 29 29 29 28 27 26
35 34 34 33 33 33 32 32 32 32 31 29 29 28 27 27 27 26 26 26 27 25
35 34 33 33 32 33 33 33 33 31 30 29 28 28 27 27 26 25 25 23 24 25
34 33 34 34 34 33 32 31 29 29 29 29 28 27 26 25 24 22 21 20 20 22

GFSNIL_sfc_30mbdewp_081.txt.gz
Dewpoint
43 43 43 44 45 51 57 58 61 61 61 61 61 61 61 61 60 60 59 57 56 52
44 43 43 44 46 47 56 58 59 59 59 59 59 58 59 59 59 59 57 56 54 48
46 46 47 47 49 51 52 53 54 55 57 56 56 56 56 53 51 51 46 44 43 41
44 46 47 47 48 48 49 50 51 52 51 50 49 50 49 46 45 44 41 40 39 38
41 41 40 38 39 44 44 46 45 43 40 38 37 40 40 40 40 40 39 37 37 36
35 33 33 33 33 33 33 32 32 31 31 32 33 35 35 35 36 36 36 36 36 36
32 32 31 32 32 32 32 32 33 33 33 33 34 34 34 35 35 35 35 35 35 35
32 33 33 33 33 34 34 34 34 33 33 33 33 34 34 34 34 33 33 34 35 35
34 34 35 35 35 35 36 36 36 35 35 35 35 35 35 33 32 32 32 31 32 34
35 35 35 35 35 35 35 35 36 35 35 35 35 36 35 33 31 31 31 31 31 31
36 36 36 35 35 34 34 34 35 35 36 36 37 36 34 31 30 29 29 28 28 26
35 35 34 33 33 33 33 32 32 30 30 30 29 29 29 27 26 25 24 25 26 25
35 34 33 32 32 33 32 30 29 28 28 30 28 28 28 26 25 23 24 25 24 25
34 33 34 33 33 33 32 31 29 28 27 26 27 27 27 26 23 22 20 20 20 22

GFSNIL_sfc_30mbdewp_084.txt.gz
Dewpoint
43 43 43 43 44 49 55 58 60 61 61 61 61 61 61 61 60 60 59 58 57 55
45 44 44 44 45 47 55 58 58 60 60 61 60 59 59 58 58 58 55 54 54 51
45 46 47 48 50 51 52 53 55 56 56 56 56 56 56 54 50 49 45 44 44 43
44 45 45 46 47 48 49 50 51 51 50 49 49 49 48 46 45 44 42 41 40 40
38 38 37 38 40 44 45 43 42 40 39 39 41 42 42 42 41 41 39 38 38 37
35 34 34 33 33 34 33 33 33 33 34 35 36 37 37 37 37 37 37 37 37 36
32 32 33 33 33 33 33 34 34 34 35 35 35 35 36 36 36 35 35 35 35 35
33 34 34 34 34 35 34 34 34 34 34 34 34 35 35 34 34 34 34 35 35 35
35 35 35 35 36 36 36 36 35 35 35 35 36 36 35 33 32 33 32 32 33 35
35 35 35 36 36 35 36 36 35 35 35 35 36 36 35 33 31 31 31 31 31 30
36 36 36 35 35 35 35 35 36 36 36 37 37 36 35 32 29 29 28 27 25 24
36 35 34 33 33 34 34 33 33 33 33 32 32 32 30 27 26 24 25 25 25 23
35 34 33 33 32 33 31 30 28 27 28 29 29 29 28 24 23 22 23 24 25 26
35 34 33 33 33 32 30 28 27 26 26 26 27 28 28 25 22 21 21 20 20 21

GFSNIL_sfc_30mbdewp_087.txt.gz
Dewpoint
43 42 42 41 42 46 52 55 58 61 61 61 61 61 61 60 60 60 59 58 57 56
44 44 43 44 45 46 50 56 57 58 59 60 60 60 60 59 58 56 52 51 52 51
45 46 47 47 48 50 52 53 54 55 56 56 56 56 56 53 51 50 46 46 46 44
44 44 45 46 47 48 49 50 50 50 50 50 50 50 49 47 46 46 43 42 42 41
38 38 38 39 42 45 44 42 42 41 41 43 43 44 44 44 42 42 41 40 39 39
35 35 35 35 34 34 35 34 34 36 37 38 39 39 39 39 39 39 39 38 38 37
33 33 34 34 34 34 34 34 35 35 36 36 36 36 36 36 36 36 36 36 36 36
33 34 34 35 35 35 34 34 34 34 35 35 35 35 35 35 35 35 34 34 34 34
35 35 35 36 36 36 36 36 36 36 36 36 37 37 36 34 34 34 33 33 34 34
35 35 36 36 36 36 35 36 35 35 36 36 36 36 36 34 32 32 32 32 31 28
36 36 36 36 35 36 36 36 36 36 37 36 36 36 35 32 30 29 28 26 24 23
36 35 35 34 34 35 35 34 34 34 35 35 35 35 32 27 25 24 24 24 24 25
36 35 34 34 33 33 33 32 31 30 29 30 29 29 27 23 23 22 23 25 26 27
35 34 34 33 33 32 30 28 28 27 26 27 28 28 27 25 22 21 21 21 20 22

GFSNIL_sfc_30mbdewp_090.txt.gz
Dewpoint
45 47 48 46 45 48 51 54 56 58 60 61 61 61 60 59 58 57 57 57 57 57
44 43 43 44 45 45 47 52 56 56 57 59 60 60 60 60 59 57 56 54 53 53
45 45 46 47 47 49 50 52 53 55 56 56 57 58 57 54 52 51 48 48 48 47
43 43 44 46 47 48 48 49 49 49 50 50 51 51 50 49 48 47 45 44 45 43
39 39 40 41 42 44 42 41 42 42 44 44 45 46 46 46 44 44 43 42 41 40
36 36 36 36 36 36 36 36 37 38 39 40 40 41 41 41 40 40 40 40 39 38
34 34 35 34 35 35 35 35 36 36 37 37 37 38 38 38 37 37 37 37 37 36
34 34 35 35 35 35 35 35 35 35 36 36 36 36 36 36 36 35 35 35 34 34
35 35 35 36 36 36 35 36 36 36 37 37 38 38 37 36 35 35 35 34 34 34
35 35 36 36 36 35 35 36 36 36 36 37 38 38 37 35 33 33 33 32 30 28
36 36 36 36 36 36 36 36 36 36 36 36 36 37 35 34 32 31 30 26 23 25
36 36 35 35 35 35 35 35 35 36 36 36 36 35 33 28 25 23 23 23 25 26
36 35 35 35 34 34 34 34 33 33 33 34 32 31 28 24 23 22 24 26 27 27
36 35 35 34 34 33 32 31 30 29 28 28 28 27 25 24 21 22 23 23 22 23

GFSNIL_sfc_30mbdewp_093.txt.gz
Dewpoint
55 57 56 55 55 55 55 56 56 58 60 61 62 61 60 59 58 57 57 56 56 56
45 45 45 44 45 45 46 50 54 56 57 57 60 60 61 60 59 58 58 58 57 56
45 45 46 46 47 48 50 51 53 54 55 56 56 58 59 58 57 56 53 52 52 50
43 43 45 46 47 48 48 49 50 50 51 51 52 53 53 52 51 50 48 47 47 46
40 40 41 42 43 44 43 42 43 45 46 46 47 48 49 48 47 47 46 45 43 42
37 38 38 38 37 38 38 38 39 41 42 42 43 43 44 44 43 42 42 41 41 40
36 36 36 36 36 36 36 37 38 38 39 39 39 40 40 40 39 39 38 38 38 38
35 35 36 36 36 35 36 36 36 37 37 38 38 38 38 38 37 37 36 36 35 36
35 35 36 36 36 36 36 36 37 37 37 38 38 39 38 37 36 36 36 35 35 36
35 36 36 36 36 36 36 36 37 37 38 39 39 39 38 37 35 34 34 33 32 30
36 36 36 36 36 36 36 36 36 36 37 37 38 38 37 35 34 32 30 27 26 25
36 36 36 36 36 36 36 36 36 37 36 36 36 36 36 32 30 25 23 24 27 29
36 36 36 35 35 35 35 35 35 35 35 36 35 34 31 26 23 22 23 27 29 28
36 36 35 35 35 34 34 33 33 32 31 30 30 29 27 25 22 23 24 24 24 25

GFSNIL_sfc_30mbdewp_096.txt.gz
Dewpoint
63 63 62 62 62 61 61 61 61 62 63 63 62 62 62 61 61 60 59 58 58 57
53 54 54 52 52 53 51 52 54 56 57 58 59 61 61 61 61 60 60 59 59 58
48 47 47 46 46 47 49 50 51 53 53 54 55 56 58 60 60 60 59 58 58 54
44 45 46 47 47 49 49 50 51 51 51 52 53 54 55 56 55 55 53 52 52 50
42 43 44 44 45 46 46 46 47 49 49 49 49 51 52 51 50 49 49 48 48 46
41 41 41 41 42 43 43 43 43 45 45 46 46 47 47 47 46 46 45 45 45 44
39 39 39 39 40 40 40 41 41 42 42 42 43 44 44 43 43 42 42 42 42 41
38 38 38 38 38 38 38 38 39 39 39 40 41 41 42 42 42 41 40 39 39 39
37 37 38 38 38 38 38 38 38 39 39 39 39 40 40 39 39 38 38 37 37 37
37 37 38 38 37 37 38 38 38 39 39 40 40 40 40 38 36 36 35 36 35 33
37 37 38 38 38 38 38 37 38 38 39 39 39 40 39 37 35 34 33 33 31 31
37 38 38 38 38 38 37 37 37 37 37 37 37 38 37 34 33 30 27 26 26 25
38 37 37 37 37 37 37 36 36 36 36 36 36 37 35 33 29 25 23 27 29 29
38 37 37 37 37 36 36 35 35 35 35 34 34 34 32 27 23 21 24 25 24 25

GFSNIL_sfc_30mbdewp_099.txt.gz
Dewpoint
59 58 58 57 58 59 60 60 61 61 61 61 61 61 61 61 61 61 60 60 59 58
62 61 61 58 58 59 60 60 61 61 62 62 63 63 62 62 61 61 60 60 60 59
52 52 52 51 51 50 50 51 52 53 54 54 55 56 58 59 61 61 60 60 59 59
48 49 48 48 48 49 49 50 50 50 51 51 51 52 53 54 56 57 57 55 57 55
44 44 45 45 46 47 46 47 48 49 49 49 50 51 52 52 51 51 52 51 51 50
42 42 42 43 43 44 44 44 45 46 46 47 47 48 48 49 48 48 47 47 47 46
41 41 40 41 41 42 42 42 43 43 43 44 44 45 46 45 45 44 44 44 44 44
40 40 39 39 39 39 40 40 40 40 40 41 42 41 43 44 43 42 41 41 40 40
39 39 39 39 39 39 39 39 40 40 40 40 40 40 40 41 41 40 39 38 38 37
38 39 39 39 39 39 39 39 40 40 40 40 41 41 40 40 38 37 37 37 36 35
38 39 39 39 39 39 39 39 39 39 40 40 40 40 39 38 37 36 35 34 33 33
38 39 39 39 40 39 39 38 38 38 38 38 39 39 38 35 33 31 30 29 30 30
39 39 39 39 39 38 38 37 37 37 37 37 37 38 37 34 30 28 26 27 28 27
39 39 39 39 39 38 37 36 36 36 36 36 36 36 36 33 28 26 26 27 27 28

GFSNIL_sfc_30mbdewp_102.txt.gz
Dewpoint
57 57 57 57 57 56 57 60 61 61 62 61 61 61 61 61 61 62 61 60 60 60
57 56 56 57 57 58 58 59 61 60 60 61 61 61 61 61 61 61 61 60 60 60
57 58 57 56 56 55 55 56 59 59 59 59 59 59 59 60 60 61 61 60 60 60
52 50 50 51 51 52 51 52 52 52 53 52 53 52 53 53 54 56 56 57 58 58
47 48 48 48 49 49 48 48 49 49 49 49 50 50 51 51 51 51 52 53 53 53
44 44 44 45 45 45 45 45 46 47 47 47 47 48 48 49 49 49 49 49 49 49
42 42 42 42 42 43 43 43 43 43 43 44 44 45 46 46 45 45 45 45 46 46
40 40 40 40 40 40 40 40 41 41 41 41 42 41 42 44 44 43 42 42 41 41
39 40 40 39 39 40 39 39 40 40 40 40 40 40 41 42 42 41 40 39 38 39
39 39 39 39 39 39 39 40 40 40 40 41 41 41 41 41 39 39 39 38 37 36
39 39 39 39 39 39 39 39 39 39 40 40 40 41 40 40 38 38 37 36 35 35
39 39 39 39 39 39 39 38 38 38 38 38 39 40 39 36 35 34 33 33 33 32
39 39 39 39 39 39 38 38 37 36 37 37 37 39 37 34 31 30 29 28 31 30
39 39 39 39 38 38 38 37 36 35 36 36 36 38 37 34 30 29 28 29 28 28

GFSNIL_sfc_30mbdewp_105.txt.gz
Dewpoint
57 57 57 56 56 57 57 59 60 61 60 61 61 60 61 61 61 60 60 59 59 59
57 57 56 57 57 57 57 58 60 61 59 60 60 60 60 61 60 61 61 61 60 60
57 57 57 57 56 57 57 58 59 60 59 59 60 61 60 61 61 60 60 60 60 59
55 56 56 56 55 54 54 55 57 59 58 57 55 54 54 54 55 55 56 56 57 57
51 51 51 51 51 52 52 52 51 51 51 50 50 50 51 51 51 51 51 51 51 52
48 48 48 48 48 47 47 47 47 48 48 48 48 48 48 49 49 49 49 49 50 50
44 44 44 44 44 44 44 44 45 44 44 44 45 45 46 46 46 46 46 46 47 47
42 42 42 42 42 42 42 42 42 41 42 42 41 41 42 44 44 44 43 42 42 42
40 40 40 40 40 40 40 40 40 40 40 40 40 41 41 42 43 42 41 41 39 40
39 40 39 39 39 39 39 40 40 40 40 40 40 41 41 41 39 39 40 39 38 37
39 39 39 39 39 39 39 39 39 39 39 39 40 41 41 40 38 39 38 38 37 36
39 39 39 39 39 39 38 38 38 38 38 38 39 40 40 38 36 36 35 35 35 35
39 39 39 39 39 38 38 38 38 38 37 37 38 39 39 36 33 33 32 31 34 34
39 39 39 39 38 39 38 38 37 36 36 36 36 38 38 36 31 31 30 30 30 32

GFSNIL_sfc_30mbdewp_108.txt.gz
Dewpoint
58 58 58 59 59 59 59 59 60 61 61 61 61 60 60 60 60 60 60 60 60 59
57 57 57 57 57 57 57 58 59 59 59 60 60 60 60 59 59 59 59 59 60 59
56 56 56 56 56 56 56 57 58 59 59 59 60 60 60 59 59 59 60 60 60 60
55 56 56 56 56 56 56 57 58 59 59 58 58 58 58 57 57 57 57 56 56 56
55 55 55 55 54 53 54 54 55 55 55 53 52 51 51 52 52 51 51 50 50 50
52 51 51 51 50 49 49 49 49 49 49 49 48 48 48 48 48 48 48 48 48 48
48 48 47 46 46 45 45 45 46 46 45 45 45 45 45 45 45 45 45 45 45 46
44 44 43 43 43 43 43 43 43 42 42 42 42 41 42 43 44 43 43 43 43 42
42 41 41 41 41 41 40 40 40 40 40 40 40 41 41 42 41 42 42 41 40 40
40 40 39 39 39 39 39 39 39 39 40 40 40 41 41 41 39 38 38 39 39 39
40 39 39 39 39 39 39 39 39 39 39 39 40 41 40 39 38 38 38 38 38 37
39 39 39 38 38 38 38 38 38 38 38 38 38 40 39 38 37 36 36 35 35 35
39 39 38 38 38 38 37 37 37 37 37 36 37 39 39 37 34 34 34 33 34 36
39 39 39 38 38 38 38 38 38 37 37 36 36 37 39 38 34 33 32 31 31 33

GFSNIL_sfc_30mbdewp_111.txt.gz
Dewpoint
61 61 61 60 60 60 60 60 61 61 62 61 61 60 60 60 60 59 59 59 59 59
59 58 58 58 58 59 58 58 59 60 60 60 60 60 59 59 58 59 58 58 58 58
57 57 57 56 57 57 57 57 57 58 58 58 59 59 59 59 59 58 58 58 59 59
55 56 56 55 55 55 55 56 56 57 58 58 58 59 59 58 58 57 56 55 54 54
55 55 55 55 55 55 55 55 56 57 58 56 55 53 53 53 52 52 51 50 50 49
53 54 53 53 52 51 51 51 51 51 51 49 49 48 48 48 48 48 47 47 47 46
50 50 49 49 47 47 47 47 47 47 46 46 45 45 45 45 44 44 44 44 44 44
46 46 45 45 44 44 44 44 43 43 42 41 41 41 41 42 42 42 42 42 42 41
44 43 42 42 42 41 41 41 41 40 40 40 41 42 43 41 40 40 40 40 39 39
41 41 40 40 40 40 39 39 39 39 39 39 40 42 42 40 38 37 37 38 38 39
40 40 39 39 39 38 38 38 38 38 38 39 40 41 40 40 38 38 38 38 38 37
39 39 39 38 38 38 38 38 38 38 38 37 38 40 39 38 36 36 36 36 36 35
39 39 38 38 37 37 37 37 37 37 37 37 37 38 39 38 35 34 34 33 34 36
39 39 38 38 37 37 37 37 37 37 37 37 35 36 38 40 36 34 33 32 32 33

GFSNIL_sfc_30mbdewp_114.txt.gz
Dewpoint
60 60 61 60 60 62 62 62 63 63 63 63 63 63 62 61 61 60 59 58 59 59
61 61 61 61 61 62 60 60 61 61 61 61 60 60 59 59 58 58 58 58 58 58
59 59 58 58 59 58 58 58 59 59 59 59 59 59 59 58 58 58 58 58 58 58
57 56 56 56 56 56 56 56 56 57 57 57 57 58 58 58 57 56 56 53 52 51
55 55 55 54 54 55 55 55 56 57 57 57 56 55 56 55 53 53 51 50 48 47
54 54 53 53 53 53 52 52 52 53 52 51 50 50 49 49 48 47 46 46 45 45
52 52 51 50 49 49 49 49 48 48 47 47 46 46 45 44 44 44 43 43 43 43
48 48 47 46 45 45 45 45 44 44 43 42 42 42 42 42 41 41 41 40 40 40
45 44 44 43 43 42 42 42 41 40 40 41 42 44 42 40 40 39 39 39 39 39
42 42 42 41 41 40 40 39 39 39 39 40 42 43 41 39 38 36 37 38 38 38
41 40 40 40 39 38 38 38 38 38 38 38 41 41 40 39 38 38 38 38 38 37
40 39 39 38 38 38 38 37 37 37 37 37 38 41 39 38 36 35 35 35 35 36
39 39 38 38 37 37 37 37 37 36 36 38 36 38 39 38 36 34 34 34 34 36
39 38 38 37 37 37 37 37 36 37 37 37 36 36 39 39 36 35 34 33 33 33

GFSNIL_sfc_30mbdewp_117.txt.gz
Dewpoint
59 59 59 61 61 61 61 62 62 62 62 62 63 63 62 62 61 61 60 59 59 58
59 59 60 60 61 61 61 62 62 63 62 62 62 62 62 61 60 59 59 58 58 58
60 61 61 61 60 60 60 61 61 61 61 61 60 60 59 58 58 58 58 58 58 57
58 59 59 60 59 59 59 59 59 59 59 59 59 58 58 57 57 56 56 54 53 51
56 57 56 56 56 56 57 56 56 57 57 57 57 58 58 56 55 54 52 49 48 47
55 55 54 54 54 54 54 54 56 56 56 55 54 54 54 52 50 49 47 46 45 44
53 53 53 52 52 52 51 51 51 51 50 50 49 48 47 46 45 44 44 44 43 43
51 50 49 48 48 48 48 47 46 46 45 44 44 44 44 43 43 42 42 41 41 41
47 47 46 45 45 44 44 44 43 42 42 42 43 42 42 41 41 40 40 40 39 40
44 44 43 43 42 42 41 41 40 40 41 42 43 42 42 41 39 38 39 39 38 39
42 42 41 41 40 39 39 39 39 39 40 41 42 42 41 40 39 39 39 38 38 37
41 40 40 39 39 38 38 38 38 38 38 40 41 41 40 38 37 36 36 36 36 36
39 39 39 38 38 37 38 37 37 37 37 37 38 41 40 38 36 35 35 35 35 36
39 38 38 37 37 37 37 37 37 37 37 38 36 37 40 39 37 36 34 34 34 34